| time (UTC) | temp C | wind direction | speed KPH | gust KPH | rain 1hr cm | rain 24hr cm | rain mn cm | humidity % | barometer mb |
| 20260509212907 | 20 | 152 | 9.7 | 16.1 | 0.00 | 0.38 | 0.38 | 51 | 981.1 |
| 20260509212407 | 20 | 165 | 9.7 | 12.9 | 0.00 | 0.38 | 0.38 | 52 | 981.1 |
| 20260509211908 | 20 | 149 | 9.7 | 14.5 | 0.00 | 0.38 | 0.38 | 52 | 981.1 |
| 20260509211408 | 20 | 270 | 9.7 | 12.9 | 0.00 | 0.38 | 0.38 | 53 | 981.3 |
| 20260509210907 | 20 | 237 | 6.4 | 14.5 | 0.00 | 0.38 | 0.38 | 53 | 981.3 |
| 20260509210407 | 20 | 239 | 4.8 | 11.3 | 0.00 | 0.38 | 0.38 | 56 | 981.5 |
| 20260509205907 | 19 | 218 | 8.0 | 12.9 | 0.00 | 0.38 | 0.38 | 55 | 981.5 |
| 20260509205407 | 20 | 248 | 9.7 | 14.5 | 0.00 | 0.38 | 0.38 | 53 | 981.5 |
| 20260509204908 | 20 | 263 | 8.0 | 12.9 | 0.00 | 0.38 | 0.38 | 56 | 981.5 |
| 20260509204407 | 21 | 203 | 9.7 | 12.9 | 0.00 | 0.38 | 0.38 | 55 | 981.5 |
| 20260509203908 | 20 | 184 | 8.0 | 11.3 | 0.00 | 0.38 | 0.38 | 56 | 981.7 |
| 20260509203407 | 20 | 226 | 8.0 | 16.1 | 0.00 | 0.38 | 0.38 | 56 | 981.7 |
| 20260509202907 | 20 | 222 | 9.7 | 14.5 | 0.00 | 0.38 | 0.38 | 55 | 981.7 |
| 20260509201907 | 20 | 252 | 4.8 | 12.9 | 0.00 | 0.38 | 0.38 | 57 | 981.7 |
| 20260509201408 | 18 | 140 | 8.0 | 12.9 | 0.00 | 0.38 | 0.38 | 58 | 981.9 |
| 20260509200907 | 19 | 174 | 4.8 | 11.3 | 0.00 | 0.38 | 0.38 | 58 | 981.9 |
| 20260509200408 | 20 | 158 | 11.3 | 11.3 | 0.00 | 0.38 | 0.38 | 55 | 982.0 |
| 20260509195408 | 20 | 310 | 9.7 | 19.3 | 0.00 | 0.38 | 0.38 | 57 | 982.0 |
| 20260509194907 | 20 | 151 | 11.3 | 16.1 | 0.00 | 0.38 | 0.38 | 56 | 982.1 |
| 20260509193907 | 19 | 265 | 8.0 | 14.5 | 0.00 | 0.38 | 0.38 | 58 | 982.4 |
| 20260509193407 | 19 | 248 | 8.0 | 14.5 | 0.00 | 0.38 | 0.38 | 59 | 982.4 |
| 20260509192907 | 18 | 180 | 8.0 | 14.5 | 0.00 | 0.38 | 0.38 | 62 | 982.4 |
| 20260509192407 | 18 | 212 | 8.0 | 11.3 | 0.00 | 0.38 | 0.38 | 60 | 982.6 |
| 20260509191407 | 19 | 238 | 8.0 | 11.3 | 0.00 | 0.38 | 0.38 | 60 | 982.8 |
| 20260509190907 | 18 | 121 | 6.4 | 12.9 | 0.00 | 0.38 | 0.38 | 62 | 982.8 |
| 20260509190408 | 18 | 175 | 8.0 | 20.9 | 0.00 | 0.38 | 0.38 | 62 | 982.8 |
| 20260509185407 | 18 | 161 | 8.0 | 12.9 | 0.00 | 0.38 | 0.38 | 64 | 982.9 |
| 20260509184908 | 17 | 256 | 9.7 | 14.5 | 0.00 | 0.38 | 0.38 | 66 | 982.8 |
| 20260509184406 | 18 | 154 | 8.0 | 12.9 | 0.00 | 0.38 | 0.38 | 64 | 982.8 |
| 20260509183907 | 18 | 152 | 4.8 | 11.3 | 0.00 | 0.38 | 0.38 | 65 | 982.9 |
| 20260509183407 | 17 | 154 | 6.4 | 9.7 | 0.00 | 0.38 | 0.38 | 67 | 982.9 |
| 20260509182907 | 16 | 208 | 6.4 | 9.7 | 0.00 | 0.38 | 0.38 | 70 | 982.9 |
| 20260509181907 | 16 | 225 | 6.4 | 9.7 | 0.00 | 0.38 | 0.38 | 70 | 983.1 |
| 20260509181406 | 16 | 245 | 8.0 | 9.7 | 0.00 | 0.38 | 0.38 | 70 | 983.2 |
| 20260509180907 | 16 | 170 | 8.0 | 9.7 | 0.00 | 0.38 | 0.38 | 72 | 983.2 |
| 20260509180407 | 16 | 192 | 4.8 | 8.0 | 0.00 | 0.38 | 0.38 | 73 | 983.1 |
| 20260509175907 | 16 | 109 | 4.8 | 9.7 | 0.00 | 0.38 | 0.38 | 75 | 983.0 |
| 20260509175407 | 15 | 129 | 4.8 | 9.7 | 0.00 | 0.38 | 0.38 | 75 | 983.0 |
| 20260509174907 | 15 | 225 | 4.8 | 9.7 | 0.00 | 0.38 | 0.38 | 74 | 983.1 |
| 20260509173906 | 15 | 224 | 4.8 | 11.3 | 0.00 | 0.38 | 0.38 | 75 | 983.0 |
| 20260509173407 | 15 | 100 | 4.8 | 9.7 | 0.00 | 0.38 | 0.38 | 76 | 983.0 |
| 20260509172407 | 15 | 320 | 9.7 | 12.9 | 0.00 | 0.38 | 0.38 | 75 | 982.9 |
| 20260509171906 | 15 | 176 | 8.0 | 11.3 | 0.00 | 0.38 | 0.38 | 75 | 982.9 |
| 20260509171407 | 15 | 146 | 8.0 | 16.1 | 0.00 | 0.38 | 0.38 | 74 | 982.8 |
| 20260509170906 | 16 | 158 | 4.8 | 9.7 | 0.00 | 0.38 | 0.38 | 74 | 982.8 |
| 20260509170406 | 15 | 102 | 8.0 | 9.7 | 0.00 | 0.38 | 0.38 | 78 | 982.8 |
| 20260509165407 | 14 | 225 | 3.2 | 3.2 | 0.00 | 0.38 | 0.38 | 82 | 982.8 |
| 20260509164906 | 14 | 225 | 3.2 | 3.2 | 0.00 | 0.38 | 0.38 | 82 | 982.8 |
| 20260509164407 | 14 | 225 | 3.2 | 3.2 | 0.00 | 0.38 | 0.38 | 82 | 982.8 |
| 20260509163907 | 14 | 225 | 3.2 | 3.2 | 0.00 | 0.38 | 0.38 | 82 | 982.8 |
| 20260509163407 | 14 | 225 | 3.2 | 3.2 | 0.00 | 0.38 | 0.38 | 82 | 982.8 |
| 20260509162907 | 14 | 224 | 3.2 | 8.0 | 0.00 | 0.38 | 0.38 | 82 | 982.7 |
| 20260509162407 | 14 | 194 | 4.8 | 8.0 | 0.03 | 0.38 | 0.38 | 82 | 982.7 |
| 20260509161906 | 13 | 225 | 3.2 | 3.2 | 0.03 | 0.38 | 0.38 | 85 | 982.7 |
| 20260509161406 | 13 | 223 | 3.2 | 8.0 | 0.03 | 0.38 | 0.38 | 87 | 982.7 |
| 20260509160907 | 13 | 199 | 1.6 | 4.8 | 0.03 | 0.38 | 0.38 | 86 | 982.7 |
| 20260509160407 | 13 | 208 | 1.6 | 4.8 | 0.03 | 0.38 | 0.38 | 88 | 982.8 |
| 20260509155907 | 12 | 327 | 4.8 | 8.0 | 0.03 | 0.38 | 0.38 | 86 | 982.8 |
| 20260509155406 | 12 | 217 | 4.8 | 8.0 | 0.03 | 0.38 | 0.38 | 88 | 982.8 |
| 20260509154906 | 12 | 280 | 3.2 | 4.8 | 0.05 | 0.38 | 0.38 | 90 | 982.4 |
| 20260509154406 | 12 | 284 | 3.2 | 3.2 | 0.05 | 0.38 | 0.38 | 89 | 982.4 |
| 20260509153907 | 12 | 189 | 3.2 | 3.2 | 0.08 | 0.38 | 0.38 | 91 | 982.2 |
| 20260509153407 | 12 | 180 | 1.6 | 3.2 | 0.08 | 0.38 | 0.38 | 93 | 982.2 |
| 20260509152907 | 12 | 188 | 1.6 | 3.2 | 0.08 | 0.38 | 0.38 | 92 | 982.2 |
| 20260509152406 | 12 | 178 | 1.6 | 3.2 | 0.05 | 0.36 | 0.36 | 92 | 982.5 |
| 20260509151906 | 12 | 258 | 3.2 | 3.2 | 0.05 | 0.36 | 0.36 | 91 | 982.5 |
| 20260509151407 | 12 | 152 | 1.6 | 3.2 | 0.05 | 0.36 | 0.36 | 91 | 982.8 |
| 20260509150907 | 12 | 193 | 3.2 | 8.0 | 0.05 | 0.36 | 0.36 | 90 | 982.8 |
| 20260509145407 | 12 | 216 | 3.2 | 4.8 | 0.08 | 0.36 | 0.36 | 91 | 982.8 |
| 20260509144406 | 12 | 167 | 3.2 | 4.8 | 0.08 | 0.33 | 0.33 | 92 | 982.9 |
| 20260509143406 | 12 | 177 | 1.6 | 4.8 | 0.05 | 0.30 | 0.30 | 90 | 983.0 |
| 20260509142906 | 12 | 72 | 1.6 | 3.2 | 0.05 | 0.30 | 0.30 | 90 | 983.0 |
| 20260509142406 | 12 | 180 | 3.2 | 3.2 | 0.08 | 0.30 | 0.30 | 90 | 982.9 |
| 20260509141906 | 12 | 180 | 0.0 | 1.6 | 0.08 | 0.30 | 0.30 | 90 | 982.9 |
| 20260509141407 | 12 | 46 | 3.2 | 4.8 | 0.10 | 0.30 | 0.30 | 89 | 982.9 |
| 20260509140906 | 12 | 177 | 3.2 | 8.0 | 0.10 | 0.30 | 0.30 | 89 | 982.9 |
| 20260509135906 | 12 | 180 | 3.2 | 3.2 | 0.08 | 0.28 | 0.28 | 89 | 982.9 |
| 20260509135406 | 11 | 197 | 4.8 | 8.0 | 0.08 | 0.28 | 0.28 | 89 | 982.9 |
| 20260509134906 | 11 | 204 | 3.2 | 8.0 | 0.05 | 0.25 | 0.25 | 89 | 983.1 |
| 20260509134406 | 11 | 189 | 3.2 | 8.0 | 0.05 | 0.25 | 0.25 | 89 | 983.1 |
| 20260509133906 | 11 | 202 | 1.6 | 3.2 | 0.08 | 0.25 | 0.25 | 90 | 983.1 |
| 20260509133406 | 11 | 214 | 4.8 | 11.3 | 0.08 | 0.25 | 0.25 | 90 | 983.1 |
| 20260509132906 | 11 | 145 | 4.8 | 9.7 | 0.08 | 0.25 | 0.25 | 90 | 983.1 |
| 20260509131906 | 11 | 216 | 1.6 | 4.8 | 0.08 | 0.23 | 0.23 | 91 | 983.2 |
| 20260509131408 | 11 | 145 | 1.6 | 3.2 | 0.05 | 0.20 | 0.20 | 91 | 983.2 |
| 20260509130906 | 11 | 174 | 3.2 | 4.8 | 0.05 | 0.20 | 0.20 | 91 | 983.2 |
| 20260509130406 | 11 | 180 | 1.6 | 3.2 | 0.05 | 0.20 | 0.20 | 91 | 983.2 |
| 20260509125906 | 11 | 162 | 0.0 | 3.2 | 0.05 | 0.20 | 0.20 | 91 | 983.2 |
| 20260509125406 | 11 | 186 | 3.2 | 8.0 | 0.05 | 0.20 | 0.20 | 91 | 983.2 |
| 20260509124907 | 11 | 135 | 4.8 | 8.0 | 0.05 | 0.20 | 0.20 | 91 | 983.3 |
| 20260509123906 | 11 | 104 | 6.4 | 9.7 | 0.03 | 0.18 | 0.18 | 91 | 983.4 |
| 20260509123406 | 11 | 171 | 4.8 | 8.0 | 0.05 | 0.18 | 0.18 | 93 | 983.4 |
| 20260509122907 | 11 | 202 | 1.6 | 3.2 | 0.05 | 0.18 | 0.18 | 93 | 983.4 |
| 20260509122406 | 11 | 184 | 0.0 | 1.6 | 0.05 | 0.15 | 0.15 | 94 | 983.3 |
| 20260509121406 | 11 | 219 | 1.6 | 3.2 | 0.05 | 0.15 | 0.15 | 94 | 983.4 |
| 20260509120906 | 10 | 185 | 0.0 | 0.0 | 0.08 | 0.15 | 0.15 | 94 | 983.4 |
| 20260509120406 | 10 | 223 | 0.0 | 1.6 | 0.08 | 0.15 | 0.15 | 94 | 983.3 |
| 20260509115906 | 10 | 215 | 0.0 | 0.0 | 0.10 | 0.15 | 0.15 | 94 | 983.3 |
| 20260509114406 | 10 | 270 | 0.0 | 1.6 | 0.10 | 0.15 | 0.15 | 94 | 983.3 |
| 20260509113906 | 10 | 180 | 1.6 | 3.2 | 0.10 | 0.15 | 0.15 | 94 | 983.2 |
| 20260509113406 | 10 | 270 | 1.6 | 1.6 | 0.08 | 0.13 | 0.13 | 93 | 983.2 |
| 20260509112406 | 10 | 191 | 3.2 | 3.2 | 0.05 | 0.10 | 0.10 | 93 | 983.3 |
| 20260509111906 | 10 | 175 | 0.0 | 3.2 | 0.05 | 0.10 | 0.10 | 93 | 983.3 |
| 20260509111407 | 10 | 225 | 1.6 | 3.2 | 0.05 | 0.10 | 0.10 | 93 | 983.1 |
| 20260509110905 | 10 | 357 | 1.6 | 3.2 | 0.03 | 0.08 | 0.08 | 93 | 983.1 |
| 20260509110406 | 10 | 90 | 3.2 | 3.2 | 0.03 | 0.08 | 0.08 | 93 | 983.0 |
| 20260509105905 | 10 | 237 | 1.6 | 3.2 | 0.00 | 0.05 | 0.05 | 93 | 983.0 |
| 20260509105406 | 10 | 274 | 1.6 | 1.6 | 0.00 | 0.05 | 0.05 | 92 | 983.0 |
| 20260509104406 | 10 | 90 | 4.8 | 4.8 | 0.00 | 0.05 | 0.05 | 92 | 983.0 |
| 20260509103906 | 10 | 67 | 1.6 | 3.2 | 0.00 | 0.05 | 0.05 | 92 | 983.1 |
| 20260509103406 | 10 | 45 | 1.6 | 4.8 | 0.03 | 0.05 | 0.05 | 93 | 983.1 |
| 20260509102907 | 10 | 107 | 3.2 | 9.7 | 0.03 | 0.05 | 0.05 | 93 | 983.1 |
| 20260509101906 | 10 | 215 | 3.2 | 3.2 | 0.03 | 0.05 | 0.05 | 93 | 983.0 |
| 20260509101406 | 10 | 15 | 3.2 | 3.2 | 0.03 | 0.05 | 0.05 | 94 | 983.2 |
| 20260509100906 | 10 | 225 | 3.2 | 4.8 | 0.03 | 0.05 | 0.05 | 94 | 983.2 |
| 20260509095906 | 10 | 167 | 4.8 | 4.8 | 0.05 | 0.05 | 0.05 | 95 | 983.2 |
| 20260509095406 | 10 | 224 | 1.6 | 3.2 | 0.05 | 0.05 | 0.05 | 95 | 983.2 |
| 20260509094906 | 10 | 125 | 3.2 | 3.2 | 0.05 | 0.05 | 0.05 | 95 | 983.3 |
| 20260509094406 | 10 | 64 | 1.6 | 3.2 | 0.05 | 0.05 | 0.05 | 95 | 983.3 |
| 20260509093906 | 10 | 227 | 0.0 | 3.2 | 0.05 | 0.05 | 0.05 | 95 | 983.4 |
| 20260509093406 | 10 | 218 | 1.6 | 3.2 | 0.03 | 0.03 | 0.03 | 95 | 983.4 |
| 20260509092906 | 10 | 308 | 1.6 | 3.2 | 0.03 | 0.03 | 0.03 | 95 | 983.4 |
| 20260509092406 | 10 | 80 | 4.8 | 4.8 | 0.03 | 0.03 | 0.03 | 95 | 983.4 |
| 20260509091406 | 10 | 286 | 3.2 | 3.2 | 0.03 | 0.03 | 0.03 | 95 | 983.4 |
| 20260509090906 | 10 | 226 | 1.6 | 3.2 | 0.03 | 0.03 | 0.03 | 95 | 983.4 |
| 20260509090406 | 10 | 279 | 3.2 | 4.8 | 0.00 | 0.00 | 0.00 | 95 | 983.5 |
| 20260509085905 | 10 | 225 | 1.6 | 1.6 | 0.00 | 0.00 | 0.00 | 95 | 983.6 |
| 20260509084906 | 10 | 235 | 0.0 | 1.6 | 0.00 | 0.00 | 0.00 | 95 | 983.5 |
| 20260509083905 | 10 | 270 | 1.6 | 3.2 | 0.00 | 0.00 | 0.00 | 95 | 983.4 |
| 20260509083405 | 10 | 287 | 3.2 | 3.2 | 0.00 | 0.00 | 0.00 | 95 | 983.4 |
| 20260509082906 | 10 | 202 | 0.0 | 1.6 | 0.00 | 0.00 | 0.00 | 95 | 983.4 |
| 20260509082405 | 10 | 68 | 1.6 | 1.6 | 0.00 | 0.00 | 0.00 | 95 | 983.2 |
| 20260509081405 | 10 | 251 | 1.6 | 3.2 | 0.00 | 0.00 | 0.00 | 95 | 983.3 |
| 20260509080905 | 10 | 221 | 3.2 | 3.2 | 0.00 | 0.00 | 0.00 | 95 | 983.3 |
| 20260509075905 | 10 | 142 | 4.8 | 8.0 | 0.00 | 0.00 | 0.00 | 95 | 983.1 |
| 20260509075406 | 10 | 180 | 3.2 | 4.8 | 0.00 | 0.00 | 0.00 | 94 | 983.1 |
| 20260509074405 | 9 | 225 | 0.0 | 1.6 | 0.00 | 0.00 | 0.00 | 94 | 982.7 |
| 20260509073905 | 9 | 225 | 0.0 | 1.6 | 0.00 | 0.00 | 0.00 | 94 | 982.5 |
| 20260509073406 | 9 | 270 | 3.2 | 3.2 | 0.00 | 0.00 | 0.00 | 94 | 982.5 |
| 20260509072905 | 9 | 225 | 0.0 | 0.0 | 0.00 | 0.00 | 0.00 | 94 | 982.5 |
| 20260509071905 | 9 | 204 | 0.0 | 0.0 | 0.00 | 0.00 | 0.00 | 94 | 982.6 |
| 20260509071406 | 9 | 244 | 0.0 | 0.0 | 0.00 | 0.00 | 0.00 | 94 | 982.7 |
| 20260509070905 | 9 | 248 | 0.0 | 0.0 | 0.00 | 0.00 | 0.00 | 94 | 982.7 |
| 20260509065905 | 9 | 202 | 0.0 | 0.0 | 0.00 | 0.00 | 0.00 | 94 | 982.8 |
| 20260509065405 | 9 | 248 | 0.0 | 0.0 | 0.00 | 0.00 | 0.00 | 94 | 982.8 |
| 20260509064905 | 9 | 225 | 0.0 | 0.0 | 0.00 | 0.00 | 0.00 | 94 | 983.1 |
| 20260509064405 | 9 | 199 | 0.0 | 0.0 | 0.00 | 0.00 | 0.00 | 94 | 983.1 |
| 20260509063906 | 9 | 235 | 0.0 | 0.0 | 0.00 | 0.00 | 0.00 | 94 | 983.2 |
| 20260509062905 | 9 | 267 | 0.0 | 0.0 | 0.00 | 0.00 | 0.00 | 94 | 983.2 |
| 20260509062405 | 9 | 235 | 0.0 | 0.0 | 0.00 | 0.00 | 0.00 | 94 | 983.4 |
| 20260509061906 | 9 | 225 | 0.0 | 0.0 | 0.00 | 0.00 | 0.00 | 94 | 983.4 |
| 20260509061404 | 9 | 270 | 0.0 | 0.0 | 0.00 | 0.00 | 0.00 | 94 | 983.7 |
| 20260509060904 | 10 | 225 | 0.0 | 0.0 | 0.00 | 0.00 | 0.00 | 94 | 983.7 |
| 20260509060406 | 10 | 219 | 0.0 | 0.0 | 0.00 | 0.00 | 0.00 | 94 | 983.9 |
| 20260509055906 | 10 | 159 | 0.0 | 0.0 | 0.00 | 0.00 | 0.00 | 94 | 983.9 |
| 20260509055405 | 10 | 233 | 1.6 | 3.2 | 0.00 | 0.00 | 0.00 | 94 | 983.9 |
| 20260509054905 | 10 | 270 | 3.2 | 3.2 | 0.00 | 0.00 | 0.00 | 94 | 983.9 |
| 20260509054405 | 10 | 287 | 1.6 | 1.6 | 0.00 | 0.00 | 0.00 | 93 | 983.9 |
| 20260509053906 | 10 | 248 | 0.0 | 0.0 | 0.00 | 0.00 | 0.00 | 93 | 984.0 |
| 20260509053405 | 10 | 229 | 0.0 | 1.6 | 0.00 | 0.00 | 0.00 | 93 | 984.0 |
| 20260509052904 | 10 | 270 | 1.6 | 1.6 | 0.00 | 0.00 | 0.00 | 93 | 984.0 |
| 20260509052404 | 10 | 225 | 0.0 | 0.0 | 0.00 | 0.00 | 0.00 | 93 | 984.0 |
| 20260509051905 | 10 | 163 | 0.0 | 0.0 | 0.00 | 0.00 | 0.00 | 93 | 984.0 |
| 20260509051405 | 10 | 226 | 0.0 | 0.0 | 0.00 | 0.00 | 0.00 | 93 | 984.1 |
| 20260509050405 | 10 | 207 | 0.0 | 0.0 | 0.00 | 0.00 | 0.00 | 93 | 984.0 |
| 20260509045405 | 10 | 260 | 0.0 | 0.0 | 0.00 | 0.00 | 0.00 | 93 | 984.0 |
| 20260509044904 | 10 | 235 | 0.0 | 0.0 | 0.00 | 0.00 | 0.00 | 93 | 984.0 |
| 20260509044404 | 10 | 270 | 0.0 | 0.0 | 0.00 | 0.00 | 0.00 | 93 | 984.0 |
| 20260509043905 | 10 | 270 | 0.0 | 0.0 | 0.00 | 0.00 | 0.00 | 92 | 984.2 |
| 20260509043406 | 10 | 270 | 0.0 | 0.0 | 0.00 | 0.00 | 0.00 | 92 | 984.2 |
| 20260509042905 | 10 | 225 | 0.0 | 0.0 | 0.00 | 0.00 | 0.00 | 92 | 984.2 |
| 20260509042406 | 10 | 271 | 0.0 | 0.0 | 0.00 | 0.00 | 0.00 | 92 | 984.4 |
| 20260509041905 | 10 | 248 | 0.0 | 0.0 | 0.00 | 0.00 | 0.00 | 92 | 984.4 |
| 20260509041405 | 10 | 269 | 0.0 | 0.0 | 0.00 | 0.00 | 0.00 | 92 | 984.5 |
| 20260509040905 | 10 | 270 | 0.0 | 0.0 | 0.00 | 0.00 | 0.00 | 92 | 984.5 |
| 20260509040405 | 10 | 265 | 0.0 | 0.0 | 0.00 | 0.00 | 0.00 | 91 | 984.6 |
| 20260509035904 | 10 | 270 | 0.0 | 0.0 | 0.00 | 0.00 | 0.00 | 91 | 984.7 |
| 20260509035405 | 10 | 180 | 0.0 | 0.0 | 0.00 | 0.00 | 0.00 | 91 | 984.7 |
| 20260509034905 | 10 | 272 | 0.0 | 0.0 | 0.00 | 0.00 | 0.00 | 91 | 984.9 |
| 20260509034405 | 10 | 270 | 0.0 | 0.0 | 0.00 | 0.00 | 0.00 | 91 | 984.9 |
| 20260509033904 | 10 | 270 | 0.0 | 0.0 | 0.00 | 0.00 | 0.00 | 91 | 985.1 |
| 20260509033405 | 10 | 202 | 0.0 | 1.6 | 0.00 | 0.00 | 0.00 | 91 | 985.1 |
| 20260509032904 | 10 | 270 | 1.6 | 1.6 | 0.00 | 0.00 | 0.00 | 90 | 985.1 |
| 20260509032405 | 10 | 225 | 0.0 | 0.0 | 0.00 | 0.00 | 0.00 | 89 | 985.4 |
| 20260509031904 | 10 | 244 | 0.0 | 0.0 | 0.00 | 0.00 | 0.00 | 89 | 985.4 |
| 20260509031404 | 10 | 224 | 0.0 | 0.0 | 0.00 | 0.00 | 0.00 | 89 | 985.4 |
| 20260509030905 | 10 | 202 | 0.0 | 0.0 | 0.00 | 0.00 | 0.00 | 89 | 985.4 |
| 20260509025905 | 10 | 158 | 0.0 | 1.6 | 0.00 | 0.00 | 0.00 | 89 | 985.5 |
| 20260509025405 | 10 | 270 | 3.2 | 4.8 | 0.00 | 0.00 | 0.00 | 89 | 985.5 |
| 20260509024905 | 10 | 245 | 3.2 | 8.0 | 0.00 | 0.00 | 0.00 | 89 | 985.6 |
| 20260509024405 | 10 | 264 | 4.8 | 8.0 | 0.00 | 0.00 | 0.00 | 89 | 985.6 |
| 20260509023905 | 10 | 125 | 1.6 | 3.2 | 0.00 | 0.00 | 0.00 | 88 | 985.7 |
| 20260509023405 | 10 | 201 | 3.2 | 3.2 | 0.00 | 0.00 | 0.00 | 88 | 985.7 |
| 20260509022905 | 10 | 309 | 1.6 | 3.2 | 0.00 | 0.00 | 0.00 | 88 | 985.7 |
| 20260509022404 | 10 | 284 | 1.6 | 3.2 | 0.00 | 0.00 | 0.00 | 88 | 985.5 |
| 20260509021904 | 11 | 270 | 0.0 | 0.0 | 0.00 | 0.00 | 0.00 | 87 | 985.5 |
| 20260509021405 | 11 | 260 | 0.0 | 0.0 | 0.00 | 0.00 | 0.00 | 86 | 985.2 |
| 20260509020404 | 11 | 202 | 0.0 | 1.6 | 0.00 | 0.00 | 0.00 | 85 | 985.1 |
| 20260509015905 | 11 | 239 | 1.6 | 1.6 | 0.00 | 0.00 | 0.00 | 85 | 985.1 |
| 20260509015404 | 11 | 160 | 0.0 | 0.0 | 0.00 | 0.00 | 0.00 | 84 | 985.1 |
| 20260509014905 | 11 | 238 | 1.6 | 3.2 | 0.00 | 0.00 | 0.00 | 84 | 984.8 |
| 20260509014404 | 11 | 239 | 3.2 | 3.2 | 0.00 | 0.00 | 0.00 | 83 | 984.8 |
| 20260509013905 | 11 | 113 | 1.6 | 1.6 | 0.00 | 0.00 | 0.00 | 82 | 984.7 |
| 20260509013404 | 11 | 292 | 1.6 | 3.2 | 0.00 | 0.00 | 0.00 | 82 | 984.7 |
| 20260509012905 | 11 | 202 | 0.0 | 1.6 | 0.00 | 0.00 | 0.00 | 82 | 984.6 |
| 20260509012405 | 11 | 270 | 3.2 | 3.2 | 0.00 | 0.00 | 0.00 | 81 | 984.5 |
| 20260509011905 | 11 | 188 | 0.0 | 0.0 | 0.00 | 0.00 | 0.00 | 79 | 984.5 |
| 20260509011404 | 11 | 202 | 1.6 | 3.2 | 0.00 | 0.00 | 0.00 | 79 | 984.1 |
| 20260509010904 | 11 | 283 | 3.2 | 3.2 | 0.00 | 0.00 | 0.00 | 77 | 984.1 |
| 20260509010404 | 11 | 273 | 1.6 | 1.6 | 0.00 | 0.00 | 0.00 | 78 | 984.1 |
| 20260509005904 | 11 | 233 | 0.0 | 1.6 | 0.00 | 0.00 | 0.00 | 77 | 984.1 |
| 20260509004905 | 11 | 240 | 1.6 | 3.2 | 0.00 | 0.00 | 0.00 | 77 | 984.0 |
| 20260509004404 | 11 | 208 | 0.0 | 0.0 | 0.00 | 0.00 | 0.00 | 75 | 984.0 |
| 20260509003904 | 11 | 225 | 1.6 | 1.6 | 0.00 | 0.00 | 0.00 | 74 | 984.1 |
| 20260509002905 | 11 | 306 | 3.2 | 3.2 | 0.00 | 0.00 | 0.00 | 74 | 984.1 |
| 20260509002404 | 12 | 281 | 1.6 | 1.6 | 0.00 | 0.00 | 0.00 | 74 | 984.1 |
| 20260509001404 | 12 | 277 | 3.2 | 3.2 | 0.00 | 0.00 | 0.00 | 72 | 984.1 |
| 20260509000904 | 12 | 225 | 1.6 | 1.6 | 0.00 | 0.00 | 0.00 | 71 | 984.1 |
| 20260508235905 | 12 | 292 | 3.2 | 3.2 | 0.00 | 0.00 | 0.00 | 71 | 984.2 |
| 20260508235405 | 12 | 292 | 1.6 | 3.2 | 0.00 | 0.00 | 0.00 | 72 | 984.2 |
| 20260508234907 | 12 | 277 | 1.6 | 1.6 | 0.00 | 0.00 | 0.00 | 71 | 984.1 |
| 20260508234407 | 13 | 235 | 1.6 | 1.6 | 0.00 | 0.00 | 0.00 | 71 | 984.1 |
| 20260508233907 | 13 | 206 | 0.0 | 0.0 | 0.00 | 0.00 | 0.00 | 68 | 984.2 |
| 20260508233408 | 13 | 198 | 0.0 | 0.0 | 0.00 | 0.00 | 0.00 | 68 | 984.2 |
| 20260508232907 | 13 | 152 | 1.6 | 3.2 | 0.00 | 0.00 | 0.00 | 71 | 984.2 |
| 20260508232407 | 13 | 274 | 3.2 | 3.2 | 0.00 | 0.00 | 0.00 | 70 | 984.2 |
| 20260508231907 | 13 | 270 | 3.2 | 3.2 | 0.00 | 0.00 | 0.00 | 69 | 984.2 |
| 20260508231407 | 13 | 302 | 3.2 | 3.2 | 0.00 | 0.00 | 0.00 | 70 | 984.4 |
| 20260508230908 | 13 | 276 | 1.6 | 3.2 | 0.00 | 0.00 | 0.00 | 70 | 984.4 |
| 20260508230408 | 13 | 270 | 0.0 | 1.6 | 0.00 | 0.00 | 0.00 | 68 | 984.4 |
| 20260508225907 | 13 | 202 | 0.0 | 0.0 | 0.00 | 0.00 | 0.00 | 68 | 984.4 |
| 20260508225407 | 13 | 180 | 0.0 | 0.0 | 0.00 | 0.00 | 0.00 | 68 | 984.4 |
| 20260508224908 | 13 | 206 | 1.6 | 1.6 | 0.00 | 0.00 | 0.00 | 68 | 984.3 |
| 20260508224407 | 13 | 241 | 0.0 | 1.6 | 0.00 | 0.00 | 0.00 | 68 | 984.3 |
| 20260508223907 | 13 | 289 | 3.2 | 3.2 | 0.00 | 0.00 | 0.00 | 68 | 984.3 |
| 20260508223408 | 13 | 292 | 3.2 | 3.2 | 0.00 | 0.00 | 0.00 | 68 | 984.3 |
| 20260508222907 | 13 | 268 | 0.0 | 3.2 | 0.00 | 0.00 | 0.00 | 67 | 984.3 |
| 20260508222407 | 13 | 274 | 3.2 | 3.2 | 0.00 | 0.00 | 0.00 | 67 | 984.0 |
| 20260508221908 | 14 | 291 | 3.2 | 3.2 | 0.00 | 0.00 | 0.00 | 65 | 984.0 |
| 20260508221407 | 14 | 292 | 3.2 | 3.2 | 0.00 | 0.00 | 0.00 | 64 | 984.2 |
| 20260508220907 | 15 | 270 | 1.6 | 3.2 | 0.00 | 0.00 | 0.00 | 61 | 984.2 |
| 20260508220408 | 15 | 292 | 3.2 | 3.2 | 0.00 | 0.00 | 0.00 | 60 | 984.2 |
| 20260508215907 | 15 | 192 | 1.6 | 3.2 | 0.00 | 0.00 | 0.00 | 59 | 984.2 |
| 20260508215408 | 15 | 292 | 3.2 | 3.2 | 0.00 | 0.00 | 0.00 | 58 | 984.2 |
| 20260508214907 | 15 | 219 | 0.0 | 1.6 | 0.00 | 0.00 | 0.00 | 56 | 984.4 |
| 20260508213407 | 15 | 202 | 0.0 | 0.0 | 0.00 | 0.00 | 0.00 | 57 | 984.5 |